Miscellaneous Local Product
Issued by NWS Hastings, NE

Home | Current Version | Previous Version | Text Only | Print | Product List | Glossary On
Versions: 1 2 3 4 5 6 7 8 9 10 11 12 13 14 15 16 17 18 19 20 21 22 23 24 25 26 27 28 29 30 31 32 33 34 35 36 37 38 39 40 41 42 43 44 45 46 47 48 49 50
946
AXUS43 KGID 291502
MISGRI

GID CWA HOURLY WEATHER ROUNDUP
NATIONAL WEATHER SERVICE HASTINGS NE
1000 AM CDT SUN MAY 29 2016

NOTE: "FAIR" INDICATES FEW OR NO CLOUDS BELOW 12,000 FEET WITH NO
SIGNIFICANT WEATHER AND/OR OBSTRUCTIONS TO VISIBILITY.

...SOUTH CENTRAL NEBRASKA...

CITY           SKY/WX    TMP DP  RH WIND       PRES   REMARKS
GRAND ISLAND   SUNNY     71  55  56 SW7       30.11F
HASTINGS       SUNNY     70  56  61 CALM      30.12S
KEARNEY        SUNNY     70  52  52 S3        30.14R
ORD            SUNNY     68  57  68 SW5       30.10S
YORK           SUNNY     72  59  64 SW6       30.11S
AURORA         SUNNY     73  55  53 SW7       30.11S
LEXINGTON      SUNNY     67  55  65 CALM      30.13S
HOLDREGE       SUNNY     67  53  62 S3        30.13S
HEBRON         CLOUDY    73  58  58 W8        30.12S THUNDER

...NEBRASKA PANHANDLE...

CITY           SKY/WX    TMP DP  RH WIND       PRES   REMARKS
CHADRON        SUNNY     59  47  64 NE5       30.11F
ALLIANCE       SUNNY     61  52  72 S9        30.12R
SCOTTSBLUFF    SUNNY     60  49  66 VRB3      30.13R
SIDNEY         SUNNY     63  50  62 W8        30.15S

...WESTERN AND NORTH CENTRAL NEBRASKA...

CITY           SKY/WX    TMP DP  RH WIND       PRES   REMARKS
VALENTINE      MOSUNNY   63  51  65 SW5       30.12R
AINSWORTH      SUNNY     65  52  62 CALM      30.13R
ONEILL         SUNNY     70  55  58 W3        30.11R
BROKEN BOW     MOSUNNY   66  56  70 SW5       30.12F
IMPERIAL       SUNNY     64  54  69 CALM      30.14S
NORTH PLATTE   SUNNY     65  52  62 CALM      30.14S
MCCOOK         SUNNY     66  54  65 CALM      30.13S

...EASTERN NEBRASKA...

CITY           SKY/WX    TMP DP  RH WIND       PRES   REMARKS
NORFOLK        SUNNY     69  59  70 VRB6      30.09S
SO SIOUX CITY  SUNNY     71  60  68 SW8       30.07S
TEKAMAH        CLOUDY    68  58  70 S5        30.09R
COLUMBUS       SUNNY     70  55  60 SW3       30.11S
ALBION         SUNNY     69  56  62 W7        30.10F
OMAHA EPPLEY   CLOUDY    70  59  68 S6        30.10R
OFFUTT AFB     MOSUNNY   69  58  67 S6        30.09S
MILLARD        SUNNY     70  58  65 SW3       30.10R
LINCOLN        SUNNY     71  60  68 SW3       30.10S
NEBRASKA CITY  CLOUDY    70  60  70 S6        30.11R
BEATRICE       SUNNY     73  61  67 W6        30.10F
FALLS CITY     PTSUNNY   73  61  65 SW7       30.10R

...NORTHERN KANSAS...

CITY           SKY/WX    TMP DP  RH WIND       PRES   REMARKS
GOODLAND       SUNNY     68  51  54 S12       30.14S
HILL CITY      MOSUNNY   73  57  57 S9        30.12S
NORTON         SUNNY     73  50  43 S5        30.12S
PHILLIPSBURG   MOSUNNY   72  54  53 CALM      30.12F
SMITH CENTER   SUNNY     72  57  60 W3        30.13S
BELOIT         PTSUNNY   68  57  68 CALM      30.11F
HAYS           SUNNY     75  59  57 S10       30.12S
RUSSELL        SUNNY     75  57  53 SW10      30.11R
CONCORDIA      PTSUNNY   65  60  84 VRB3      30.12F
SALINA         SUNNY     79  63  57 SW7       30.11F
TOPEKA         SUNNY     78  61  55 CALM      30.11R



USA.gov is the U.S. government's official web portal to all federal, state and local government web resources and services.